WetterOnline ( https://www.wetteronline.de )

Wetter aktuell Schwabach

Aktuelles Wetter: Roth (386m)

6-stündlich | Neueste Meldungen
Ortszeit Temperatur Wetter
Mo, 20.05. 2:00 8.5° C wolkenlos
So, 19.05. 20:00 17.7° C leicht bewölkt
So, 19.05. 14:00 19.6° C leicht bewölkt
So, 19.05. 8:00 12.6° C bedeckt
So, 19.05. 2:00 11.8° C bewölkt
Sa, 18.05. 20:00 15.4° C bedeckt
Sa, 18.05. 14:00 14.0° C bedeckt
Sa, 18.05. 8:00 11.0° C leichter Regen
Ortszeit Temperatur Wetter
Mo, 20.05. 7:00 10.0° C wolkig
Mo, 20.05. 6:50 10.0° C wolkig
Mo, 20.05. 6:40 9.0° C bewölkt
Mo, 20.05. 6:30 8.8° C wolkig
Mo, 20.05. 6:20 8.8° C wolkig
Mo, 20.05. 6:10 8.4° C leicht bewölkt
Mo, 20.05. 6:00 7.7° C leicht bewölkt
Mo, 20.05. 5:30 7.7° C leicht bewölkt
Mo, 20.05. 5:00 7.2° C wolkig
Mo, 20.05. 4:30 7.3° C leicht bewölkt
Mo, 20.05. 4:00 7.7° C wolkenlos
Ortszeit Relative Feuchte Sichtweite
Mo, 20.05. 2:00 96% 45 km
So, 19.05. 20:00 58% >70 km
So, 19.05. 14:00 46% 60 km
So, 19.05. 8:00 85% >70 km
So, 19.05. 2:00 92% 60 km
Sa, 18.05. 20:00 80% >70 km
Sa, 18.05. 14:00 84% 65 km
Sa, 18.05. 8:00 95% 23 km
Ortszeit Relative Feuchte Sichtweite
Mo, 20.05. 7:00 93% 35 km
Mo, 20.05. 6:50 93% -
Mo, 20.05. 6:40 95% -
Mo, 20.05. 6:30 93% 40 km
Mo, 20.05. 6:20 93% -
Mo, 20.05. 6:10 96% -
Mo, 20.05. 6:00 98% 30 km
Mo, 20.05. 5:30 98% 40 km
Mo, 20.05. 5:00 95% 40 km
Mo, 20.05. 4:30 95% 45 km
Mo, 20.05. 4:00 97% 40 km
Ortszeit Niederschlagsmenge Niederschlagsart
Mo, 20.05. 2:00 0.0 l/m2 in 6 Std. -
So, 19.05. 20:00 0.1 l/m2 in 12 Std. -
So, 19.05. 14:00 0.1 l/m2 in 6 Std. Regen
So, 19.05. 8:00 0.2 l/m2 in 12 Std. -
So, 19.05. 2:00 0.2 l/m2 in 6 Std. Regen
Sa, 18.05. 20:00 2 l/m2 in 12 Std. -
Sa, 18.05. 14:00 2 l/m2 in 6 Std. Regen
Sa, 18.05. 8:00 6 l/m2 in 12 Std. Regen
Ortszeit Niederschlagsmenge Niederschlagsart
Mo, 20.05. 7:00 0.0 l/m2 in 1 Std. -
Mo, 20.05. 6:50 keine Meldung -
Mo, 20.05. 6:40 keine Meldung -
Mo, 20.05. 6:30 0.0 l/m2 in 30 Min -
Mo, 20.05. 6:20 keine Meldung -
Mo, 20.05. 6:10 keine Meldung -
Mo, 20.05. 6:00 0.0 l/m2 in 1 Std. -
Mo, 20.05. 5:30 0.0 l/m2 in 30 Min -
Mo, 20.05. 5:00 0.0 l/m2 in 1 Std. -
Mo, 20.05. 4:30 0.0 l/m2 in 30 Min -
Mo, 20.05. 4:00 0.0 l/m2 in 1 Std. -
Ortszeit Stärke Spitze Richtung
km/h Bft. km/h Grad Sektor
Mo, 20.05. 2:00 4 1 11 210° SW
So, 19.05. 20:00 7 2 32 300° NW
So, 19.05. 14:00 24 4 41 250° W
So, 19.05. 8:00 9 2 17 210° SW
So, 19.05. 2:00 13 3 33 230° SW
Sa, 18.05. 20:00 4 1 22 20° N
Sa, 18.05. 14:00 11 2 33 250° W
Sa, 18.05. 8:00 17 3 35 240° SW
Ortszeit Stärke Spitze Richtung
km/h Bft. km/h Grad Sektor
Mo, 20.05. 7:00 4 1 7 140° SO
Mo, 20.05. 6:50 4 1 - 140° SO
Mo, 20.05. 6:40 4 1 - 130° SO
Mo, 20.05. 6:30 4 1 4 140° SO
Mo, 20.05. 6:20 4 1 - 140° SO
Mo, 20.05. 6:10 4 1 - 150° SO
Mo, 20.05. 6:00 4 1 4 120° SO
Mo, 20.05. 5:30 4 1 4 130° SO
Mo, 20.05. 5:00 4 1 4 180° S
Mo, 20.05. 4:30 0 0 4 - -
Mo, 20.05. 4:00 0 0 4 - -
Ortszeit Untergrenze Bedeckung Gattung
total tief tief mittel hoch
Mo, 20.05. 2:00 - 0/8 0/8 - - -
So, 19.05. 20:00 2700 m 2/8 2/8 - - -
So, 19.05. 14:00 1440 m 4/8 4/8 - - -
So, 19.05. 8:00 1800 m 8/8 8/8 - - -
So, 19.05. 2:00 1260 m 7/8 7/8 - - -
Sa, 18.05. 20:00 5700 m 8/8 8/8 - - -
Sa, 18.05. 14:00 600 m 8/8 8/8 - - -
Sa, 18.05. 8:00 330 m 8/8 8/8 - - -
Ortszeit Bedeckungsgrad in Achtel und Wolkenuntergrenze
Mo, 20.05. 7:00 6(1800m)
Mo, 20.05. 6:50 6(1800m)
Mo, 20.05. 6:40 7
Mo, 20.05. 6:30 5(1500m)
Mo, 20.05. 6:20 5(1500m)
Mo, 20.05. 6:10 2
Mo, 20.05. 6:00 2(1800m)
Mo, 20.05. 5:30 2(2100m)
Mo, 20.05. 5:00 5(2100m)
Mo, 20.05. 4:30 1(1500m)
Mo, 20.05. 4:00 keine Wolken
Ortszeit Luftdruck NN (hPa) Tendenz (hPa in 3 Std.)
Mo, 20.05. 2:00 1012 + 0,1
So, 19.05. 20:00 1010 - 0,2
So, 19.05. 14:00 1010 - 1,0
So, 19.05. 8:00 1013 + 0,6
So, 19.05. 2:00 1013 + 0,8
Sa, 18.05. 20:00 1010 - 0,9
Sa, 18.05. 14:00 1012 + 0,4
Sa, 18.05. 8:00 1011 + 1,1
Ortszeit Luftdruck NN (hPa) Tendenz (hPa in 3 Std.)
Mo, 20.05. 7:00 1013 + 0,4
Mo, 20.05. 6:50 1013 keine Meldung
Mo, 20.05. 6:40 1013 keine Meldung
Mo, 20.05. 6:30 1013 + 0,2
Mo, 20.05. 6:20 1013 keine Meldung
Mo, 20.05. 6:10 1013 keine Meldung
Mo, 20.05. 6:00 1013 + 0,1
Mo, 20.05. 5:30 1013 + 0,1
Mo, 20.05. 5:00 1013 + 0,1
Mo, 20.05. 4:30 1013 - 0,2
Mo, 20.05. 4:00 1013 - 0,1
Ortszeit Schneehöhe (cm)
Mo, 20.05. 2:00 -
So, 19.05. 20:00 -
So, 19.05. 14:00 -
So, 19.05. 8:00 -
So, 19.05. 2:00 -
Sa, 18.05. 20:00 -
Sa, 18.05. 14:00 -
Sa, 18.05. 8:00 0
Ortszeit Schneehöhe (cm)
Mo, 20.05. 7:00 -
Mo, 20.05. 6:50 -
Mo, 20.05. 6:40 -
Mo, 20.05. 6:30 -
Mo, 20.05. 6:20 -
Mo, 20.05. 6:10 -
Mo, 20.05. 6:00 -
Mo, 20.05. 5:30 -
Mo, 20.05. 5:00 -
Mo, 20.05. 4:30 -
Mo, 20.05. 4:00 -
Link zu dieser Seite / Seite empfehlen

Das Wetter in ...